Location: *
(45.9500°N, 9.0833°E)
Time: 21:01:57
(UTC+00:00)

Cosmos 1515 - Pass Details

Date: 03 March 2021
Orbit: 504 x 516 km, 82.5° (Epoch: 20 April)

Event Time Altitude Azimuth Distance (km) Brightness Sun altitude
Rises 17:54:10 0° 354° (N) 2,647 7.4 -7.9°
Reaches altitude 10° 17:56:20 10° 357° (N) 1,754 6.4 -8.3°
Maximum altitude 18:00:09 63° 79° (E) 580 3.7 -9.0°
Drops below altitude 10° 18:03:55 10° 162° (SSE) 1,732 6.2 -9.6°
Sets 18:06:03 0° 165° (SSE) 2,611 7.1 -10.0°
